TW-1A
1 40928U 15051D 15323.64851008 .00010593 00000-0 35826-3 0 9996
2 40928 97.2925 358.2162 0016155 94.3409 24.0434 15.30675574 8483
IO-86
1 40931U 15052B 15323.72383437 .00001233 00000-0 83432-4 0 9994
2 40931 6.0031 15.5088 0013109 22.3696 337.6668 14.76380983 7777
AAUSat-5
1 40948U 98067GZ 15323.64413492 .00084487 00000-0 96648-3 0 9999
2 40948 51.6414 27.1460 0004289 140.8520 219.2785 15.61410633 7024
GomX-3
1 40949U 98067HA 15323.40703169 .00063635 00000-0 77798-3 0 9994
2 40949 51.6434 28.5672 0006020 160.4602 199.7136 15.59723839 6989
LQSat
1 40958U 15057A 15323.83949855 .00000464 00000-0 80423-4 0 9994
2 40958 98.0374 36.2734 0019392 105.5998 254.7341 14.72747997 6420
AO-85
1 40967U 15058D 15323.50196694 .00001732 00000-0 19539-3 0 00443
2 40967 064.7773 164.5226 0217735 269.2432 088.3721 14.74416702006068
/EX
1
0
SB KEPS @ AMSAT $ORB15316.N
2Line Orbital Elements 15316.AMSAT
HR AMSAT ORBITAL ELEMENTS FOR AMATEUR SATELLITES IN NASA FORMAT
FROM WA5QGD FORT WORTH,TX November 12, 2015
BID: ORB15316.N
DECODE 2-LINE ELSETS WITH THE FOLLOWING KEY:
1 AAAAAU 00 0 0 BBBBB.BBBBBBBB .CCCCCCCC 00000-0 00000-0 0 DDDZ
2 AAAAA EEE.EEEE FFF.FFFF GGGGGGG HHH.HHHH III.IIII JJ.JJJJJJJJKKKKKZ
KEY: A-CATALOGNUM B-EPOCHTIME C-DECAY D-ELSETNUM E-INCLINATION F-RAAN
G-ECCENTRICITY H-ARGPERIGEE I-MNANOM J-MNMOTION K-ORBITNUM Z-CHECKSUM
TO ALL RADIO AMATEURS BT
AO-07
1 07530U 74089B 15316.53185387 -.00000037 00000-0 40342-4 0 9997
2 07530 101.5426 287.8841 0012243 15.6465 124.3745 12.53617773875843
FO-29
1 24278U 96046B 15316.72018671 .00000008 00000-0 42440-4 0 9992
2 24278 98.5633 265.5627 0351151 45.9410 68.5288 13.53059836950117
SO-33
1 25509U 98061B 15315.86588304 .00000360 00000-0 56905-4 0 9990
2 25509 31.4327 134.0883 0347855 288.2650 68.0423 14.30092452890575
RS-22
1 27939U 03042A 15316.51612497 .00000661 00000-0 12826-3 0 9995
2 27939 97.8589 111.9879 0011890 278.3286 81.6572 14.66211918647925
HO-68
1 36122U 09072B 15316.53054100 -.00000059 00000-0 -43517-4 0 9996
2 36122 100.1763 355.9234 0008010 135.4154 224.7616 13.16330421283978
AO-73
1 39444U 13066AE 15316.11551802 .00001536 00000-0 20089-3 0 9996
2 39444 97.7133 13.3382 0059697 14.6601 345.6326 14.80608433105305
EO-79
1 40025U 14033R 15316.69386729 .00001715 00000-0 19495-3 0 9993
2 40025 97.9398 217.0790 0014163 60.6558 299.6070 14.87520631 75865
XW-2A
1 40903U 15049E 15316.89163296 .00008577 00000-0 26282-3 0 9995
2 40903 97.4530 324.6820 0016161 185.9372 258.7922 15.33916928 8214
XW-2C
1 40906U 15049H 15316.88560280 .00004177 00000-0 24304-3 0 9996
2 40906 97.4559 323.8038 0017947 69.1434 48.4593 15.12457361 8143
LILACSAT-2
1 40908U 15049K 15316.89561308 .00002907 00000-0 17318-3 0 9997
2 40908 97.4622 323.8117 0018368 63.1888 2.0563 15.11838454 8147
XW-2E
1 40909U 15049L 15316.87508196 .00005797 00000-0 33224-3 0 9996
2 40909 97.4554 323.8184 0017333 72.2401 47.1587 15.12848262 8144
UO-11
1 14781U 84021B 15316.59103071 .00000646 00000-0 86685-4 0 9991
2 14781 97.7828 9.8749 0007428 313.1019 46.9573 14.82570821704014
AO-16
1 20439U 90005D 15315.78573928 .00000104 00000-0 54199-4 0 9993
2 20439 98.5529 249.8866 0011993 84.9567 304.4514 14.32584194347874
LO-19
1 20442U 90005G 15316.81369907 .00000119 00000-0 59640-4 0 9994
2 20442 98.5237 250.0057 0012907 70.6452 289.6127 14.32774039348224
AO-27
1 22825U 93061C 15316.60964562 .00000094 00000-0 53908-4 0 9994
2 22825 98.7282 266.8912 0007513 230.0730 129.9793 14.29916480154141
IO-26
1 22826U 93061D 15315.93359175 .00000103 00000-0 57211-4 0 9990
2 22826 98.7224 266.3628 0008113 223.2975 136.7570 14.30236572154204
GO-32
1 25397U 98043D 15315.91229074 .00000041 00000-0 36730-4 0 9997
2 25397 098.5388 261.8486 0000237 206.8043 189.1545 14.23568583900589
NO-44
1 26931U 01043C 15316.60083445 .00000077 00000-0 61581-4 0 9994
2 26931 67.0496 154.2447 0006625 277.1250 82.9097 14.30358555737028
SO-50
1 27607U 02058C 15315.92619943 .00000783 00000-0 13107-3 0 9998
2 27607 064.5540 107.6212 0082474 260.1076 099.0708 14.74916244692949
CO-55
1 27844U 03031E 15316.80686064 .00000214 00000-0 11708-3 0 9993
2 27844 98.6953 323.2192 0008902 227.3691 132.6736 14.21870944641557
CO-57
1 27848U 03031J 15316.73389485 .00000177 00000-0 10083-3 0 9999
2 27848 98.7050 323.1313 0008728 236.0208 178.9464 14.21508416641453
AO-51
1 28375U 04025K 15315.79799470 -.00000045 00000-0 00000 0 0 9992
2 28375 98.3095 252.0961 0081750 243.5424 144.4555 14.41717952597764
CP3
1 31129U 07012N 15316.45307848 .00000660 00000-0 15128-3 0 9993
2 31129 98.0012 275.9543 0095398 211.1553 269.1224 14.56034667454691
CO-65
1 32785U 08021C 15316.88848987 .00001307 00000-0 15098-3 0 9999
2 32785 97.6313 354.8542 0011991 298.7437 114.2040 14.87187393408339
PRISM
1 33493U 09002B 15316.88238791 .00004040 00000-0 38392-3 0 9991
2 33493 98.2381 161.5287 0015282 198.0394 162.0259 14.94008894368770
SOHLA-1
1 33496U 09002E 15316.41499501 .00000373 00000-0 68413-4 0 9994
2 33496 98.2324 85.7472 0007382 59.7532 344.9165 14.71467219364972
TISAT-1
1 36799U 10035E 15316.76241147 .00002199 00000-0 23903-3 0 9992
2 36799 98.0226 58.9699 0014042 81.4252 70.9732 14.89087228289064
STUDSAT
1 36801U 10035G 15316.45835697 .00019624 00000-0 99577-3 0 9992
2 36801 98.0762 84.7670 0005625 355.6180 4.5001 15.16958713290412
ALMASAT-1
1 38078U 12006B 15316.80173278 .00047570 36213-5 75993-3 0 9996
2 38078 69.4518 223.4546 0439902 50.1126 313.7831 14.88080873197076
CUBEBUG-1
1 39153U 13018D 15316.81877941 .00001307 00000-0 18137-3 0 9999
2 39153 98.0113 40.7303 0018258 130.4422 229.8385 14.79524136137451
ESTCUBE-1
1 39161U 13021C 15316.52882560 .00001065 00000-0 18002-3 0 9995
2 39161 98.0647 38.1175 0009155 195.4706 164.6227 14.71390481135053
DUCHIFAT-1
1 40021U 14033M 15316.69011637 .00002739 00000-0 29971-3 0 9999
2 40021 97.9421 217.6729 0014906 60.1376 300.1319 14.88583483 75896
NANOSATCBR1
1 40024U 14033Q 15316.72516834 .00002161 00000-0 24066-3 0 9994
2 40024 97.9401 217.3569 0014044 59.7459 300.5145 14.88093624 75888
DTUSAT-2
1 40030U 14033W 15316.68913067 .00001789 00000-0 20500-3 0 9999
2 40030 97.9383 216.7019 0013547 54.7542 305.4939 14.87152629 75843
ANTELSAT
1 40034U 14033AA 15316.61826067 .00001536 00000-0 24024-3 0 9994
2 40034 97.9262 205.2616 0060287 5.2378 354.9452 14.73011183 75146
MET-2/21
1 22782U 93055A 15316.45150936 .00000037 00000-0 20271-4 0 9998
2 22782 82.5464 126.0285 0021176 265.0366 151.8003 13.83778584121108
OKEAN-4
1 23317U 94066A 15316.82795963 .00000962 00000-0 10467-3 0 9994
2 23317 82.5357 305.7811 0019616 192.4554 242.7191 14.86903477139396
NOAA-14
1 23455U 94089A 15316.51728578 .00000033 00000-0 40021-4 0 9995
2 23455 98.7432 34.8499 0009824 23.9700 91.9523 14.14058359 76490
NOAA-15
1 25338U 98030A 15316.52321733 .00000113 00000-0 66311-4 0 9999
2 25338 98.7787 315.3093 0011697 97.1897 263.0612 14.25675685909971
RESURS
1 25394U 98043A 15315.92611692 .00000007 00000-0 21307-4 0 9992
2 25394 098.4855 265.8125 0001238 151.8634 249.2832 14.24461159901293
FENGYUN1
1 25730U 99025A 15315.96483203 .00000618 00000-0 35029-3 0 9999
2 25730 98.9558 280.8904 0021225 79.0553 317.2066 14.13690096849932
OKEAN-0
1 25860U 99039A 15315.95695584 .00000569 00000-0 89801-4 0 9997
2 25860 098.1147 284.4218 0001165 110.2079 315.3431 14.76190789877672
